Regional Weather Roundup
Issued by NWS

Home | Current Version | Previous Version | Graphics & Text | Print | Product List | Glossary On
Versions: 1 2 3 4 5 6 7 8 9 10 11 12 13 14 15 16 17 18 19 20 21 22 23 24 25 26 27 28 29 30 31 32 33 34 35 36 37 38 39 40 41 42 43 44 45 46 47 48 49 50
000
ASUS45 KBOU 171007
RWRCO

WEATHER ROUNDUP FOR COLORADO
NATIONAL WEATHER SERVICE DENVER/BOULDER CO
300 AM MST WED DEC 17 2014

NOTE: "FAIR" INDICATES FEW OR NO CLOUDS BELOW 12000 FEET WITH NO
SIGNIFICANT WEATHER AND/OR OBSTRUCTIONS TO VISIBILITY.

COZ001>005-013-030-031-171100-
...NORTHWEST COLORADO...

CITY           SKY/WX    TMP DP  RH WIND       PRES   REMARKS
CRAIG          CLOUDY    22  19  89 CALM      30.03F
HAYDEN         MOCLDY    25  19  80 E7        30.02S WCI  17
MEEKER         LGT SNOW  26  22  84 CALM      30.03F FOG
MOUNT WERNER   NOT AVBL
STEAMBOAT SPGS CLOUDY    21  19  93 CALM      30.02F
WALDEN         PTCLDY    12   9  85 SE3       30.00S
$$

COZ006>008-011-171100-
...WEST CENTRAL VALLEYS...

CITY           SKY/WX    TMP DP  RH WIND       PRES   REMARKS
GRAND JUNCTION CLOUDY    32  28  85 CALM      30.02F
MONTROSE       MOCLDY    30  26  85 CALM      30.05S
EAGLE          CLOUDY    16  14  93 CALM      30.11S
RIFLE          CLOUDY    28  25  88 SE3       30.05F
DELTA          CLOUDY    33  27  78 S5        30.05S WCI  28
NUCLA          CLOUDY    32  28  86 CALM      30.06S
$$

COZ017>023-064>068-171100-
...SOUTHWEST COLORADO...

CITY           SKY/WX    TMP DP  RH WIND       PRES   REMARKS
DURANGO        CLOUDY    31  26  82 CALM      30.03F
CORTEZ         MOCLDY    31  26  82 CALM      29.99F
PAGOSA SPRINGS CLOUDY    27  25  93 CALM      30.05F
TELLURIDE      CLOUDY    31  21  66 CALM      30.04F
WOLF CREEK PAS CLOUDY    14  12  92 MISG      30.07S
$$

COZ009-010-012-014-032>034-037-058>063-171100-
...CENTRAL COLORADO...

CITY           SKY/WX    TMP DP  RH WIND       PRES   REMARKS
ASPEN          CLOUDY    20  16  84 S5        30.01F WCI  13
BUENA VISTA    PTCLDY    19  13  78 W5        30.03F WCI  12
COPPER MTN     LGT SNOW  19  14  79 W16       30.03F WCI   5
BERTHOUD PASS  FAIR      12   7  79 MISG      30.01F
COTTONWOOD PAS PTCLDY    30  18  59 CALM      30.02F
GUNNISON       MOCLDY    12   7  79 CALM      30.10R
KREMMLING      CLOUDY   N/A N/A N/A CALM      30.09S
LEADVILLE      PTCLDY    16  10  77 E3        30.01S
MONARCH PASS   PTCLDY    18  14  86 MISG      30.13S
SALIDA         PTCLDY    27  15  61 NW12      30.10F WCI  16
SUNLIGHT       LGT SNOW  25  23  93 CALM      30.04F
WILKERSON PASS PTCLDY    19  14  79 SW6       30.05F WCI  11
$$

COZ069>075-171100-
...SAN LUIS VALLEY/SANGRE DE CRISTO MOUNTAINS...

CITY           SKY/WX    TMP DP  RH WIND       PRES   REMARKS
ALAMOSA        CLOUDY    19  14  81 CALM      30.04F
LA VETA PASS   MOCLDY    21  14  73 S10       30.03S WCI  10
SAGUACHE       MOCLDY    21  12  68 NW8       30.05F WCI  12
$$

COZ035-036-038>040-171100-
...NORTHERN COLORADO FRONT RANGE...

CITY           SKY/WX    TMP DP  RH WIND       PRES   REMARKS
DENVER INTL AP MOCLDY    23  19  85 SW6       29.98F WCI  16
DMNS CITY PARK   N/A     23  19  82 W1        29.98S
AURORA         PTCLDY    23  18  78 S6        29.98F WCI  16
FRONT RANGE AP MOCLDY    27  21  80 SW5       29.99S WCI  21
ERIE MUNI ARPT   N/A     19  17  93 CALM      29.99F
BOULDER MUN AP MOCLDY    25  23  93 CALM      29.99S
CENTENNIAL     CLOUDY    23  16  74 S7        29.96F WCI  15
BROOMFIELD     MOCLDY    27  23  86 CALM      29.98S
FORT COLLINS   MOCLDY    21  18  86 CALM      30.01F
LONGMONT       MOCLDY    22  19  90 CALM      30.02S
$$

COZ041-046-047-076>085-087-088-171100-
...PIKES PEAK/PALMER DIVIDE AND SOUTHERN FOOTHILLS...

CITY           SKY/WX    TMP DP  RH WIND       PRES   REMARKS
COLO. SPRINGS  MOCLDY    27  18  69 N8        29.97F WCI  19
A. F. ACADEMY  PTCLDY    25  17  70 NE2       29.97F
ELLICOTT       NOT AVBL
FALCON         PTCLDY    33  18  54 N8        29.98S WCI  26
FORT CARSON    PTCLDY    23  18  78 N12       29.95F WCI  12
LIMON          MOCLDY    10   7  87 N3        29.99F
MONUMENT HILL  MOCLDY    28  18  64 W9        29.97S WCI  20
TRINIDAD       MOCLDY    26  21  81 CALM      29.98S
$$

COZ042>045-048>051-090-091-171100-
...NORTHEAST COLORADO...

CITY           SKY/WX    TMP DP  RH WIND       PRES   REMARKS
GREELEY ARPT   MOCLDY    16   9  73 CALM      30.00F
AKRON          MOCLDY    16  15  96 SE12      30.02F FOG     WCI   3
BURLINGTON     CLOUDY    22  20  92 SE12      30.05F WCI  10
WRAY           CLOUDY    23  23 100 E8        30.11F WCI  13
STERLING       PTCLDY    21  21 100 SE5       30.06F WCI  15
HOLYOKE        NOT AVBL
FORT MORGAN    PTCLDY    13  11  92 NE8       30.02F FOG     WCI   2
$$

COZ086-089-092>099-171100-
...SOUTHEAST COLORADO...

CITY           SKY/WX    TMP DP  RH WIND       PRES   REMARKS
PUEBLO         NOT AVBL
LA JUNTA       CLOUDY    24  21  88 W8        30.01F WCI  15
LAMAR          PTCLDY    25  23  92 S6        30.01S WCI  18
SPRINGFIELD      N/A     25  21  85 CALM      30.00F
$$



USA.gov is the U.S. government's official web portal to all federal, state and local government web resources and services.